Location: Dalton Gardens
(47.7327°N, 116.7697°W)
Time: 01:04:56
(UTC+00:00)

BlueWalker 3 - Pass Details

Date: 30 November 2022
Orbit: 499 x 517 km, 53.2° (Epoch: 26 January)

Event Time Altitude Azimuth Distance (km) Brightness Sun altitude
Rises 02:15:29 0° 278° (W) 2,630 6.9 -22.4°
Reaches altitude 10° 02:17:49 10° 287° (WNW) 1,739 5.6 -22.8°
Enters shadow 02:21:06 35° 341° (NNW) 836 3.1 -23.3°
